Time,TemperatureF,DewpointF,PressureIn,WindDirection,WindDirectionDegrees,WindSpeedMPH,WindSpeedGustMPH,Humidity,HourlyPrecipIn,Conditions,Clouds,dailyrainin,SoftwareType,DateUTC
2013-01-15 00:02:00,30.0,-99.9,28.74,East,90,0.0,-999.0,-999,-99.99,,,-99.99,,2013-01-15 00:02:00,
2013-01-15 00:08:00,30.2,-99.9,28.74,East,90,1.0,-999.0,-999,-99.99,,,-99.99,,2013-01-15 00:08:00,
2013-01-15 00:14:00,30.2,-99.9,28.74,East,90,2.0,-999.0,-999,-99.99,,,-99.99,,2013-01-15 00:14:00,
2013-01-15 00:20:00,30.2,-99.9,28.74,East,90,3.0,-999.0,-999,-99.99,,,-99.99,,2013-01-15 00:20:00,
2013-01-15 00:26:00,30.1,-99.9,28.74,East,90,1.0,-999.0,-999,-99.99,,,-99.99,,2013-01-15 00:26:00,
2013-01-15 00:32:00,30.1,-99.9,28.74,East,90,0.0,-999.0,-999,-99.99,,,-99.99,,2013-01-15 00:32:00,
2013-01-15 00:38:00,30.0,-99.9,28.74,East,90,0.0,-999.0,-999,-99.99,,,-99.99,,2013-01-15 00:38:00,
2013-01-15 00:44:00,30.1,-99.9,28.74,East,90,1.0,-999.0,-999,-99.99,,,-99.99,,2013-01-15 00:44:00,
2013-01-15 00:50:00,30.2,-99.9,28.74,East,90,4.0,-999.0,-999,-99.99,,,-99.99,,2013-01-15 00:50:00,
2013-01-15 00:56:00,30.4,-99.9,28.74,East,90,5.0,-999.0,-999,-99.99,,,-99.99,,2013-01-15 00:56:00,
2013-01-15 01:02:00,30.4,-99.9,28.74,East,90,1.0,-999.0,-999,-99.99,,,-99.99,,2013-01-15 01:02:00,
2013-01-15 01:08:00,30.3,-99.9,28.74,East,90,4.0,-999.0,-999,-99.99,,,-99.99,,2013-01-15 01:08:00,
2013-01-15 01:14:00,30.0,-99.9,28.74,East,90,0.0,-999.0,-999,-99.99,,,-99.99,,2013-01-15 01:14:00,
2013-01-15 01:20:00,29.8,-99.9,28.74,East,90,3.0,-999.0,-999,-99.99,,,-99.99,,2013-01-15 01:20:00,
2013-01-15 01:26:00,29.8,-99.9,28.74,East,90,6.0,-999.0,-999,-99.99,,,-99.99,,2013-01-15 01:26:00,
2013-01-15 01:32:00,29.9,-99.9,28.74,East,90,3.0,-999.0,-999,-99.99,,,-99.99,,2013-01-15 01:32:00,
2013-01-15 01:38:00,30.0,-99.9,28.75,East,90,3.0,-999.0,-999,-99.99,,,-99.99,,2013-01-15 01:38:00,
2013-01-15 01:44:00,29.9,-99.9,28.75,East,90,4.0,-999.0,-999,-99.99,,,-99.99,,2013-01-15 01:44:00,
2013-01-15 01:50:00,30.1,-99.9,28.75,East,90,2.0,-999.0,-999,-99.99,,,-99.99,,2013-01-15 01:50:00,
2013-01-15 01:56:00,30.2,-99.9,28.75,East,90,1.0,-999.0,-999,-99.99,,,-99.99,,2013-01-15 01:56:00,
2013-01-15 02:02:00,30.3,-99.9,28.75,East,90,3.0,-999.0,-999,-99.99,,,-99.99,,2013-01-15 02:02:00,
2013-01-15 02:08:00,30.4,-99.9,28.75,East,90,5.0,-999.0,-999,-99.99,,,-99.99,,2013-01-15 02:08:00,
2013-01-15 02:14:00,30.8,-99.9,28.75,East,90,4.0,-999.0,-999,-99.99,,,-99.99,,2013-01-15 02:14:00,
2013-01-15 02:20:00,30.9,-99.9,28.75,East,90,4.0,-999.0,-999,-99.99,,,-99.99,,2013-01-15 02:20:00,
2013-01-15 02:26:00,30.9,-99.9,28.75,East,90,3.0,-999.0,-999,-99.99,,,-99.99,,2013-01-15 02:26:00,
2013-01-15 02:32:00,30.9,-99.9,28.75,East,90,5.0,-999.0,-999,-99.99,,,-99.99,,2013-01-15 02:32:00,
2013-01-15 02:38:00,31.0,-99.9,28.75,East,90,5.0,-999.0,-999,-99.99,,,-99.99,,2013-01-15 02:38:00,
2013-01-15 02:44:00,31.0,-99.9,28.75,East,90,5.0,-999.0,-999,-99.99,,,-99.99,,2013-01-15 02:44:00,
2013-01-15 02:50:00,31.0,-99.9,28.75,East,90,0.0,-999.0,-999,-99.99,,,-99.99,,2013-01-15 02:50:00,
2013-01-15 02:56:00,30.9,-99.9,28.75,East,90,2.0,-999.0,-999,-99.99,,,-99.99,,2013-01-15 02:56:00,
2013-01-15 03:02:00,30.6,-99.9,28.75,East,90,3.0,-999.0,-999,-99.99,,,-99.99,,2013-01-15 03:02:00,
2013-01-15 03:08:00,30.4,-99.9,28.75,East,90,4.0,-999.0,-999,-99.99,,,-99.99,,2013-01-15 03:08:00,
2013-01-15 03:14:00,30.2,-99.9,28.75,East,90,2.0,-999.0,-999,-99.99,,,-99.99,,2013-01-15 03:14:00,
2013-01-15 03:20:00,30.0,-99.9,28.75,East,90,1.0,-999.0,-999,-99.99,,,-99.99,,2013-01-15 03:20:00,
2013-01-15 03:26:00,30.0,-99.9,28.75,East,90,1.0,-999.0,-999,-99.99,,,-99.99,,2013-01-15 03:26:00,
2013-01-15 03:32:00,30.0,-99.9,28.75,East,90,1.0,-999.0,-999,-99.99,,,-99.99,,2013-01-15 03:32:00,
2013-01-15 03:38:00,30.0,-99.9,28.75,East,90,0.0,-999.0,-999,-99.99,,,-99.99,,2013-01-15 03:38:00,
2013-01-15 03:44:00,29.9,-99.9,28.75,East,90,0.0,-999.0,-999,-99.99,,,-99.99,,2013-01-15 03:44:00,
2013-01-15 03:50:00,29.9,-99.9,28.75,East,90,0.0,-999.0,-999,-99.99,,,-99.99,,2013-01-15 03:50:00,
2013-01-15 03:56:00,29.8,-99.9,28.75,East,90,3.0,-999.0,-999,-99.99,,,-99.99,,2013-01-15 03:56:00,
2013-01-15 04:02:00,29.9,-99.9,28.75,East,90,0.0,-999.0,-999,-99.99,,,-99.99,,2013-01-15 04:02:00,
2013-01-15 04:08:00,29.8,-99.9,28.75,East,90,2.0,-999.0,-999,-99.99,,,-99.99,,2013-01-15 04:08:00,
2013-01-15 04:14:00,29.8,-99.9,28.75,East,90,1.0,-999.0,-999,-99.99,,,-99.99,,2013-01-15 04:14:00,
2013-01-15 04:20:00,29.8,-99.9,28.75,East,90,0.0,-999.0,-999,-99.99,,,-99.99,,2013-01-15 04:20:00,
2013-01-15 04:26:00,29.6,-99.9,28.75,East,90,0.0,-999.0,-999,-99.99,,,-99.99,,2013-01-15 04:26:00,
2013-01-15 04:32:00,29.8,-99.9,28.75,East,90,0.0,-999.0,-999,-99.99,,,-99.99,,2013-01-15 04:32:00,
2013-01-15 04:38:00,29.9,-99.9,28.75,East,90,0.0,-999.0,-999,-99.99,,,-99.99,,2013-01-15 04:38:00,
2013-01-15 04:44:00,29.8,-99.9,28.75,East,90,0.0,-999.0,-999,-99.99,,,-99.99,,2013-01-15 04:44:00,
2013-01-15 04:50:00,29.8,-99.9,28.75,East,90,0.0,-999.0,-999,-99.99,,,-99.99,,2013-01-15 04:50:00,
2013-01-15 04:56:00,29.6,-99.9,28.75,East,90,0.0,-999.0,-999,-99.99,,,-99.99,,2013-01-15 04:56:00,
2013-01-15 05:00:00,29.5,-99.9,28.75,East,90,0.0,-999.0,-999,-99.99,,,-99.99,,2013-01-15 05:00:00,
2013-01-15 05:06:00,29.6,-99.9,28.75,East,90,0.0,-999.0,-999,-99.99,,,-99.99,,2013-01-15 05:06:00,
2013-01-15 05:08:00,29.6,-99.9,28.75,East,90,0.0,-999.0,-999,-99.99,,,-99.99,,2013-01-15 05:08:00,
2013-01-15 05:14:00,29.6,-99.9,28.76,East,90,0.0,-999.0,-999,-99.99,,,-99.99,,2013-01-15 05:14:00,
2013-01-15 05:18:00,29.8,-99.9,28.76,East,90,0.0,-999.0,-999,-99.99,,,-99.99,,2013-01-15 05:18:00,
2013-01-15 05:24:00,29.8,-99.9,28.76,East,90,0.0,-999.0,-999,-99.99,,,-99.99,,2013-01-15 05:24:00,
2013-01-15 05:30:00,30.1,-99.9,28.76,East,90,4.0,-999.0,-999,-99.99,,,-99.99,,2013-01-15 05:30:00,
2013-01-15 05:36:00,30.3,-99.9,28.76,East,90,2.0,-999.0,-999,-99.99,,,-99.99,,2013-01-15 05:36:00,
2013-01-15 05:42:00,30.5,-99.9,28.76,East,90,3.0,-999.0,-999,-99.99,,,-99.99,,2013-01-15 05:42:00,
2013-01-15 05:48:00,30.6,-99.9,28.76,East,90,5.0,-999.0,-999,-99.99,,,-99.99,,2013-01-15 05:48:00,
2013-01-15 05:54:00,30.9,-99.9,28.76,East,90,5.0,-999.0,-999,-99.99,,,-99.99,,2013-01-15 05:54:00,
2013-01-15 06:00:00,31.0,-99.9,28.76,East,90,4.0,-999.0,-999,-99.99,,,-99.99,,2013-01-15 06:00:00,
2013-01-15 06:06:00,31.1,-99.9,28.76,East,90,9.0,-999.0,-999,-99.99,,,-99.99,,2013-01-15 06:06:00,
2013-01-15 06:12:00,31.1,-99.9,28.76,East,90,4.0,-999.0,-999,-99.99,,,-99.99,,2013-01-15 06:12:00,
2013-01-15 06:18:00,31.1,-99.9,28.76,East,90,2.0,-999.0,-999,-99.99,,,-99.99,,2013-01-15 06:18:00,
2013-01-15 06:24:00,31.1,-99.9,28.76,East,90,4.0,-999.0,-999,-99.99,,,-99.99,,2013-01-15 06:24:00,
2013-01-15 06:30:00,30.9,-99.9,28.76,East,90,4.0,-999.0,-999,-99.99,,,-99.99,,2013-01-15 06:30:00,
2013-01-15 06:36:00,30.5,-99.9,28.77,East,90,5.0,-999.0,-999,-99.99,,,-99.99,,2013-01-15 06:36:00,
2013-01-15 06:42:00,30.3,-99.9,28.77,East,90,4.0,-999.0,-999,-99.99,,,-99.99,,2013-01-15 06:42:00,
2013-01-15 06:48:00,30.2,-99.9,28.77,East,90,2.0,-999.0,-999,-99.99,,,-99.99,,2013-01-15 06:48:00,
2013-01-15 06:54:00,30.3,-99.9,28.77,East,90,6.0,-999.0,-999,-99.99,,,-99.99,,2013-01-15 06:54:00,
2013-01-15 07:00:00,30.3,-99.9,28.77,East,90,4.0,-999.0,-999,-99.99,,,-99.99,,2013-01-15 07:00:00,
2013-01-15 07:06:00,30.4,-99.9,28.77,East,90,3.0,-999.0,-999,-99.99,,,-99.99,,2013-01-15 07:06:00,
2013-01-15 07:12:00,-999.0,-99.9,28.77,North,-999,-999.0,-999.0,-999,-99.99,,,-99.99,,2013-01-15 07:12:00,
2013-01-15 07:18:00,30.5,-99.9,28.77,East,90,7.0,-999.0,-999,-99.99,,,-99.99,,2013-01-15 07:18:00,
2013-01-15 07:24:00,30.6,-99.9,28.77,East,90,3.0,-999.0,-999,-99.99,,,-99.99,,2013-01-15 07:24:00,
2013-01-15 07:30:00,30.9,-99.9,28.78,East,90,5.0,-999.0,-999,-99.99,,,-99.99,,2013-01-15 07:30:00,
2013-01-15 07:36:00,30.8,-99.9,28.78,East,90,6.0,-999.0,-999,-99.99,,,-99.99,,2013-01-15 07:36:00,
2013-01-15 07:42:00,30.8,-99.9,28.78,East,90,5.0,-999.0,-999,-99.99,,,-99.99,,2013-01-15 07:42:00,
2013-01-15 07:48:00,30.9,-99.9,28.78,East,90,7.0,-999.0,-999,-99.99,,,-99.99,,2013-01-15 07:48:00,
2013-01-15 07:54:00,31.0,-99.9,28.78,East,90,6.0,-999.0,-999,-99.99,,,-99.99,,2013-01-15 07:54:00,
2013-01-15 08:00:00,31.1,-99.9,28.78,East,90,4.0,-999.0,-999,-99.99,,,-99.99,,2013-01-15 08:00:00,
2013-01-15 08:06:00,31.0,-99.9,28.78,East,90,3.0,-999.0,-999,-99.99,,,-99.99,,2013-01-15 08:06:00,
2013-01-15 08:12:00,31.0,-99.9,28.78,East,90,5.0,-999.0,-999,-99.99,,,-99.99,,2013-01-15 08:12:00,
2013-01-15 08:18:00,30.9,-99.9,28.78,East,90,2.0,-999.0,-999,-99.99,,,-99.99,,2013-01-15 08:18:00,
2013-01-15 08:24:00,30.8,-99.9,28.78,East,90,3.0,-999.0,-999,-99.99,,,-99.99,,2013-01-15 08:24:00,
2013-01-15 08:30:00,30.5,-99.9,28.79,East,90,6.0,-999.0,-999,-99.99,,,-99.99,,2013-01-15 08:30:00,
2013-01-15 08:36:00,30.3,-99.9,28.79,East,90,7.0,-999.0,-999,-99.99,,,-99.99,,2013-01-15 08:36:00,
2013-01-15 08:42:00,30.3,-99.9,28.79,East,90,9.0,-999.0,-999,-99.99,,,-99.99,,2013-01-15 08:42:00,
2013-01-15 08:48:00,30.6,-99.9,28.79,East,90,9.0,-999.0,-999,-99.99,,,-99.99,,2013-01-15 08:48:00,
2013-01-15 08:54:00,30.8,-99.9,28.80,East,90,3.0,-999.0,-999,-99.99,,,-99.99,,2013-01-15 08:54:00,
2013-01-15 09:00:00,30.8,-99.9,28.80,East,90,4.0,-999.0,-999,-99.99,,,-99.99,,2013-01-15 09:00:00,
2013-01-15 09:06:00,30.8,-99.9,28.80,East,90,3.0,-999.0,-999,-99.99,,,-99.99,,2013-01-15 09:06:00,
2013-01-15 09:12:00,30.8,-99.9,28.81,East,90,5.0,-999.0,-999,-99.99,,,-99.99,,2013-01-15 09:12:00,
2013-01-15 09:18:00,30.6,-99.9,28.81,East,90,5.0,-999.0,-999,-99.99,,,-99.99,,2013-01-15 09:18:00,
2013-01-15 09:24:00,30.5,-99.9,28.81,East,90,3.0,-999.0,-999,-99.99,,,-99.99,,2013-01-15 09:24:00,
2013-01-15 09:30:00,30.3,-99.9,28.81,East,90,2.0,-999.0,-999,-99.99,,,-99.99,,2013-01-15 09:30:00,
2013-01-15 09:36:00,30.2,-99.9,28.81,East,90,0.0,-999.0,-999,-99.99,,,-99.99,,2013-01-15 09:36:00,
2013-01-15 09:42:00,30.2,-99.9,28.81,East,90,2.0,-999.0,-999,-99.99,,,-99.99,,2013-01-15 09:42:00,
2013-01-15 09:48:00,30.3,-99.9,28.81,East,90,0.0,-999.0,-999,-99.99,,,-99.99,,2013-01-15 09:48:00,
2013-01-15 09:54:00,30.5,-99.9,28.81,East,90,0.0,-999.0,-999,-99.99,,,-99.99,,2013-01-15 09:54:00,
2013-01-15 10:00:00,30.5,-99.9,28.81,East,90,1.0,-999.0,-999,-99.99,,,-99.99,,2013-01-15 10:00:00,
2013-01-15 10:06:00,30.6,-99.9,28.82,East,90,0.0,-999.0,-999,-99.99,,,-99.99,,2013-01-15 10:06:00,
2013-01-15 10:12:00,30.5,-99.9,28.82,East,90,0.0,-999.0,-999,-99.99,,,-99.99,,2013-01-15 10:12:00,
2013-01-15 10:18:00,30.8,-99.9,28.82,East,90,1.0,-999.0,-999,-99.99,,,-99.99,,2013-01-15 10:18:00,
2013-01-15 10:24:00,33.2,-99.9,28.82,East,90,2.0,-999.0,-999,-99.99,,,-99.99,,2013-01-15 10:24:00,
2013-01-15 10:30:00,36.2,-99.9,28.82,SE,135,1.0,-999.0,-999,-99.99,,,-99.99,,2013-01-15 10:30:00,
2013-01-15 10:36:00,38.3,-99.9,28.83,SE,135,1.0,-999.0,-999,-99.99,,,-99.99,,2013-01-15 10:36:00,
2013-01-15 10:42:00,40.2,-99.9,28.83,ESE,112,4.0,-999.0,-999,-99.99,,,-99.99,,2013-01-15 10:42:00,
2013-01-15 10:48:00,41.2,-99.9,28.83,ESE,112,2.0,-999.0,-999,-99.99,,,-99.99,,2013-01-15 10:48:00,
2013-01-15 10:54:00,42.9,-99.9,28.83,SE,135,4.0,-999.0,-999,-99.99,,,-99.99,,2013-01-15 10:54:00,
2013-01-15 11:00:00,40.7,-99.9,28.83,ESE,112,6.0,-999.0,-999,-99.99,,,-99.99,,2013-01-15 11:00:00,
2013-01-15 11:06:00,37.2,-99.9,28.83,East,90,3.0,-999.0,-999,-99.99,,,-99.99,,2013-01-15 11:06:00,
2013-01-15 11:12:00,35.4,-99.9,28.83,ESE,112,1.0,-999.0,-999,-99.99,,,-99.99,,2013-01-15 11:12:00,
2013-01-15 11:18:00,34.2,-99.9,28.83,East,90,3.0,-999.0,-999,-99.99,,,-99.99,,2013-01-15 11:18:00,
2013-01-15 11:24:00,33.5,-99.9,28.83,NE,45,3.0,-999.0,-999,-99.99,,,-99.99,,2013-01-15 11:24:00,
2013-01-15 11:30:00,32.9,-99.9,28.83,ENE,67,4.0,-999.0,-999,-99.99,,,-99.99,,2013-01-15 11:30:00,
2013-01-15 11:36:00,33.6,-99.9,28.83,North,0,1.0,-999.0,-999,-99.99,,,-99.99,,2013-01-15 11:36:00,
2013-01-15 11:42:00,35.7,-99.9,28.83,ENE,67,2.0,-999.0,-999,-99.99,,,-99.99,,2013-01-15 11:42:00,
2013-01-15 11:48:00,37.3,-99.9,28.83,SE,135,5.0,-999.0,-999,-99.99,,,-99.99,,2013-01-15 11:48:00,
2013-01-15 11:54:00,37.2,-99.9,28.83,SE,135,4.0,-999.0,-999,-99.99,,,-99.99,,2013-01-15 11:54:00,
2013-01-15 12:00:00,35.6,-99.9,28.83,ESE,112,6.0,-999.0,-999,-99.99,,,-99.99,,2013-01-15 12:00:00,
2013-01-15 12:06:00,34.0,-99.9,28.83,ESE,112,2.0,-999.0,-999,-99.99,,,-99.99,,2013-01-15 12:06:00,
2013-01-15 12:12:00,33.3,-99.9,28.83,SW,225,5.0,-999.0,-999,-99.99,,,-99.99,,2013-01-15 12:12:00,
2013-01-15 12:18:00,32.8,-99.9,28.83,SSW,202,4.0,-999.0,-999,-99.99,,,-99.99,,2013-01-15 12:18:00,
2013-01-15 12:24:00,32.8,-99.9,28.83,ESE,112,3.0,-999.0,-999,-99.99,,,-99.99,,2013-01-15 12:24:00,
2013-01-15 12:30:00,33.2,-99.9,28.83,SE,135,4.0,-999.0,-999,-99.99,,,-99.99,,2013-01-15 12:30:00,
2013-01-15 12:36:00,33.1,-99.9,28.83,ESE,112,3.0,-999.0,-999,-99.99,,,-99.99,,2013-01-15 12:36:00,
2013-01-15 12:42:00,33.1,-99.9,28.82,ESE,112,2.0,-999.0,-999,-99.99,,,-99.99,,2013-01-15 12:42:00,
2013-01-15 12:48:00,33.2,-99.9,28.82,East,90,2.0,-999.0,-999,-99.99,,,-99.99,,2013-01-15 12:48:00,
2013-01-15 12:54:00,33.1,-99.9,28.82,ESE,112,3.0,-999.0,-999,-99.99,,,-99.99,,2013-01-15 12:54:00,
2013-01-15 13:00:00,33.1,-99.9,28.82,East,90,1.0,-999.0,-999,-99.99,,,-99.99,,2013-01-15 13:00:00,
2013-01-15 13:06:00,34.5,-99.9,28.82,ENE,67,3.0,-999.0,-999,-99.99,,,-99.99,,2013-01-15 13:06:00,
2013-01-15 13:12:00,35.9,-99.9,28.81,ENE,67,0.0,-999.0,-999,-99.99,,,-99.99,,2013-01-15 13:12:00,
2013-01-15 13:18:00,38.2,-99.9,28.81,East,90,2.0,-999.0,-999,-99.99,,,-99.99,,2013-01-15 13:18:00,
2013-01-15 13:24:00,37.0,-99.9,28.81,East,90,3.0,-999.0,-999,-99.99,,,-99.99,,2013-01-15 13:24:00,
2013-01-15 13:30:00,35.3,-99.9,28.81,ESE,112,3.0,-999.0,-999,-99.99,,,-99.99,,2013-01-15 13:30:00,
2013-01-15 13:36:00,34.8,-99.9,28.81,ESE,112,3.0,-999.0,-999,-99.99,,,-99.99,,2013-01-15 13:36:00,
2013-01-15 13:42:00,34.6,-99.9,28.81,ESE,112,4.0,-999.0,-999,-99.99,,,-99.99,,2013-01-15 13:42:00,
2013-01-15 13:48:00,35.2,-99.9,28.81,ESE,112,2.0,-999.0,-999,-99.99,,,-99.99,,2013-01-15 13:48:00,
2013-01-15 13:54:00,36.6,-99.9,28.81,ESE,112,1.0,-999.0,-999,-99.99,,,-99.99,,2013-01-15 13:54:00,
2013-01-15 14:00:00,39.1,-99.9,28.81,ESE,112,2.0,-999.0,-999,-99.99,,,-99.99,,2013-01-15 14:00:00,
2013-01-15 14:06:00,40.3,-99.9,28.81,ESE,112,5.0,-999.0,-999,-99.99,,,-99.99,,2013-01-15 14:06:00,
2013-01-15 14:12:00,39.7,-99.9,28.81,ESE,112,3.0,-999.0,-999,-99.99,,,-99.99,,2013-01-15 14:12:00,
2013-01-15 14:18:00,37.2,-99.9,28.81,ESE,112,1.0,-999.0,-999,-99.99,,,-99.99,,2013-01-15 14:18:00,
2013-01-15 14:24:00,34.7,-99.9,28.81,ESE,112,1.0,-999.0,-999,-99.99,,,-99.99,,2013-01-15 14:24:00,
2013-01-15 14:30:00,32.7,-99.9,28.81,ESE,112,0.0,-999.0,-999,-99.99,,,-99.99,,2013-01-15 14:30:00,
2013-01-15 14:36:00,31.4,-99.9,28.81,ESE,112,1.0,-999.0,-999,-99.99,,,-99.99,,2013-01-15 14:36:00,
2013-01-15 14:42:00,30.6,-99.9,28.81,ESE,112,0.0,-999.0,-999,-99.99,,,-99.99,,2013-01-15 14:42:00,
2013-01-15 14:48:00,30.4,-99.9,28.81,ESE,112,0.0,-999.0,-999,-99.99,,,-99.99,,2013-01-15 14:48:00,
2013-01-15 14:54:00,30.1,-99.9,28.81,ESE,112,0.0,-999.0,-999,-99.99,,,-99.99,,2013-01-15 14:54:00,
2013-01-15 15:00:00,29.5,-99.9,28.81,ESE,112,2.0,-999.0,-999,-99.99,,,-99.99,,2013-01-15 15:00:00,
2013-01-15 15:06:00,29.0,-99.9,28.81,ESE,112,0.0,-999.0,-999,-99.99,,,-99.99,,2013-01-15 15:06:00,
2013-01-15 15:12:00,28.4,-99.9,28.81,ESE,112,1.0,-999.0,-999,-99.99,,,-99.99,,2013-01-15 15:12:00,
2013-01-15 15:18:00,28.0,-99.9,28.81,ESE,112,0.0,-999.0,-999,-99.99,,,-99.99,,2013-01-15 15:18:00,
2013-01-15 15:24:00,27.4,-99.9,28.81,ESE,112,1.0,-999.0,-999,-99.99,,,-99.99,,2013-01-15 15:24:00,
2013-01-15 15:30:00,27.2,-99.9,28.81,ESE,112,2.0,-999.0,-999,-99.99,,,-99.99,,2013-01-15 15:30:00,
2013-01-15 15:36:00,26.9,-99.9,28.81,ESE,112,1.0,-999.0,-999,-99.99,,,-99.99,,2013-01-15 15:36:00,
2013-01-15 15:42:00,26.7,-99.9,28.82,NE,45,0.0,-999.0,-999,-99.99,,,-99.99,,2013-01-15 15:42:00,
2013-01-15 15:48:00,26.6,-99.9,28.82,NE,45,2.0,-999.0,-999,-99.99,,,-99.99,,2013-01-15 15:48:00,
2013-01-15 15:54:00,26.6,-99.9,28.82,NNE,22,3.0,-999.0,-999,-99.99,,,-99.99,,2013-01-15 15:54:00,
2013-01-15 16:00:00,26.3,-99.9,28.82,NNE,22,2.0,-999.0,-999,-99.99,,,-99.99,,2013-01-15 16:00:00,
2013-01-15 16:06:00,25.9,-99.9,28.82,NE,45,1.0,-999.0,-999,-99.99,,,-99.99,,2013-01-15 16:06:00,
2013-01-15 16:12:00,25.7,-99.9,28.82,NE,45,1.0,-999.0,-999,-99.99,,,-99.99,,2013-01-15 16:12:00,
2013-01-15 16:18:00,25.7,-99.9,28.82,NE,45,0.0,-999.0,-999,-99.99,,,-99.99,,2013-01-15 16:18:00,
2013-01-15 16:24:00,25.5,-99.9,28.82,NE,45,0.0,-999.0,-999,-99.99,,,-99.99,,2013-01-15 16:24:00,
2013-01-15 16:30:00,24.9,-99.9,28.82,NE,45,0.0,-999.0,-999,-99.99,,,-99.99,,2013-01-15 16:30:00,
2013-01-15 16:36:00,24.7,-99.9,28.82,NE,45,0.0,-999.0,-999,-99.99,,,-99.99,,2013-01-15 16:36:00,
2013-01-15 16:42:00,24.7,-99.9,28.82,NE,45,1.0,-999.0,-999,-99.99,,,-99.99,,2013-01-15 16:42:00,
2013-01-15 16:48:00,24.8,-99.9,28.82,NE,45,1.0,-999.0,-999,-99.99,,,-99.99,,2013-01-15 16:48:00,
2013-01-15 16:54:00,24.7,-99.9,28.82,NE,45,0.0,-999.0,-999,-99.99,,,-99.99,,2013-01-15 16:54:00,
2013-01-15 17:00:00,24.4,-99.9,28.82,NE,45,0.0,-999.0,-999,-99.99,,,-99.99,,2013-01-15 17:00:00,
2013-01-15 17:06:00,24.1,-99.9,28.82,NE,45,0.0,-999.0,-999,-99.99,,,-99.99,,2013-01-15 17:06:00,
2013-01-15 17:12:00,24.1,-99.9,28.82,NE,45,0.0,-999.0,-999,-99.99,,,-99.99,,2013-01-15 17:12:00,
2013-01-15 17:18:00,24.2,-99.9,28.82,NE,45,0.0,-999.0,-999,-99.99,,,-99.99,,2013-01-15 17:18:00,
2013-01-15 17:24:00,24.2,-99.9,28.82,NE,45,0.0,-999.0,-999,-99.99,,,-99.99,,2013-01-15 17:24:00,
2013-01-15 17:30:00,24.2,-99.9,28.82,NE,45,0.0,-999.0,-999,-99.99,,,-99.99,,2013-01-15 17:30:00,
2013-01-15 17:36:00,24.0,-99.9,28.82,NE,45,1.0,-999.0,-999,-99.99,,,-99.99,,2013-01-15 17:36:00,
2013-01-15 17:42:00,24.0,-99.9,28.81,NE,45,0.0,-999.0,-999,-99.99,,,-99.99,,2013-01-15 17:42:00,
2013-01-15 17:48:00,23.5,-99.9,28.81,NE,45,0.0,-999.0,-999,-99.99,,,-99.99,,2013-01-15 17:48:00,
2013-01-15 17:54:00,23.3,-99.9,28.82,NE,45,2.0,-999.0,-999,-99.99,,,-99.99,,2013-01-15 17:54:00,
2013-01-15 18:00:00,23.8,-99.9,28.81,NE,45,3.0,-999.0,-999,-99.99,,,-99.99,,2013-01-15 18:00:00,
2013-01-15 18:06:00,23.8,-99.9,28.82,NE,45,5.0,-999.0,-999,-99.99,,,-99.99,,2013-01-15 18:06:00,
2013-01-15 18:12:00,23.9,-99.9,28.82,NE,45,0.0,-999.0,-999,-99.99,,,-99.99,,2013-01-15 18:12:00,
2013-01-15 18:18:00,23.5,-99.9,28.81,NE,45,1.0,-999.0,-999,-99.99,,,-99.99,,2013-01-15 18:18:00,
2013-01-15 18:24:00,23.2,-99.9,28.82,NE,45,3.0,-999.0,-999,-99.99,,,-99.99,,2013-01-15 18:24:00,
2013-01-15 18:30:00,23.3,-99.9,28.81,NE,45,2.0,-999.0,-999,-99.99,,,-99.99,,2013-01-15 18:30:00,
2013-01-15 18:36:00,23.1,-99.9,28.81,NE,45,3.0,-999.0,-999,-99.99,,,-99.99,,2013-01-15 18:36:00,
2013-01-15 18:39:00,21.3,-99.9,-100.00,NE,45,0.0,-999.0,-999,-99.99,,,-99.99,,2013-01-15 18:39:00,
2013-01-15 19:27:00,21.2,-99.9,28.81,NE,45,0.0,-999.0,-999,-99.99,,,-99.99,,2013-01-15 19:27:00,
2013-01-15 19:33:00,-999.0,-99.9,28.80,North,-999,-999.0,-999.0,-999,-99.99,,,-99.99,,2013-01-15 19:33:00,
2013-01-15 19:39:00,20.3,-99.9,28.80,NE,45,-999.0,-999.0,-999,-99.99,,,-99.99,,2013-01-15 19:39:00,
2013-01-15 19:45:00,19.7,-99.9,28.80,NE,45,0.0,-999.0,-999,-99.99,,,-99.99,,2013-01-15 19:45:00,
2013-01-15 19:51:00,19.4,-99.9,28.80,NE,45,0.0,-999.0,-999,-99.99,,,-99.99,,2013-01-15 19:51:00,
2013-01-15 19:57:00,-999.0,-99.9,28.80,North,-999,-999.0,-999.0,-999,-99.99,,,-99.99,,2013-01-15 19:57:00,
2013-01-15 20:03:00,19.6,-99.9,28.80,NE,45,0.0,-999.0,-999,-99.99,,,-99.99,,2013-01-15 20:03:00,
2013-01-15 20:13:00,19.5,-99.9,-100.00,NE,45,0.0,-999.0,-999,-99.99,,,-99.99,,2013-01-15 20:13:00,
2013-01-15 20:19:00,19.4,-99.9,28.81,NE,45,0.0,-999.0,-999,-99.99,,,-99.99,,2013-01-15 20:19:00,
2013-01-15 20:25:00,19.2,-99.9,28.81,NE,45,0.0,-999.0,-999,-99.99,,,-99.99,,2013-01-15 20:25:00,
2013-01-15 20:31:00,19.1,-99.9,28.80,NE,45,0.0,-999.0,-999,-99.99,,,-99.99,,2013-01-15 20:31:00,
2013-01-15 20:37:00,19.4,-99.9,28.81,NE,45,0.0,-999.0,-999,-99.99,,,-99.99,,2013-01-15 20:37:00,
2013-01-15 20:43:00,20.3,-99.9,28.81,NE,45,0.0,-999.0,-999,-99.99,,,-99.99,,2013-01-15 20:43:00,
2013-01-15 20:49:00,21.1,-99.9,28.81,NE,45,1.0,-999.0,-999,-99.99,,,-99.99,,2013-01-15 20:49:00,
2013-01-15 20:55:00,21.3,-99.9,28.81,NE,45,0.0,-999.0,-999,-99.99,,,-99.99,,2013-01-15 20:55:00,
2013-01-15 21:01:00,21.2,-99.9,28.81,NE,45,0.0,-999.0,-999,-99.99,,,-99.99,,2013-01-15 21:01:00,
2013-01-15 21:07:00,21.0,-99.9,28.81,NE,45,0.0,-999.0,-999,-99.99,,,-99.99,,2013-01-15 21:07:00,
2013-01-15 21:13:00,20.6,-99.9,28.81,NE,45,0.0,-999.0,-999,-99.99,,,-99.99,,2013-01-15 21:13:00,
2013-01-15 21:19:00,20.1,-99.9,28.81,NE,45,0.0,-999.0,-999,-99.99,,,-99.99,,2013-01-15 21:19:00,
2013-01-15 21:25:00,19.6,-99.9,28.81,NE,45,0.0,-999.0,-999,-99.99,,,-99.99,,2013-01-15 21:25:00,
2013-01-15 21:31:00,19.4,-99.9,28.81,NE,45,0.0,-999.0,-999,-99.99,,,-99.99,,2013-01-15 21:31:00,
2013-01-15 21:37:00,19.5,-99.9,28.81,NE,45,0.0,-999.0,-999,-99.99,,,-99.99,,2013-01-15 21:37:00,
2013-01-15 21:43:00,19.4,-99.9,28.81,NE,45,0.0,-999.0,-999,-99.99,,,-99.99,,2013-01-15 21:43:00,
2013-01-15 21:49:00,19.1,-99.9,28.81,NE,45,0.0,-999.0,-999,-99.99,,,-99.99,,2013-01-15 21:49:00,
2013-01-15 21:55:00,18.7,-99.9,28.80,NE,45,0.0,-999.0,-999,-99.99,,,-99.99,,2013-01-15 21:55:00,
2013-01-15 22:01:00,18.3,-99.9,28.80,NE,45,0.0,-999.0,-999,-99.99,,,-99.99,,2013-01-15 22:01:00,
2013-01-15 22:07:00,17.7,-99.9,28.80,NE,45,0.0,-999.0,-999,-99.99,,,-99.99,,2013-01-15 22:07:00,
2013-01-15 22:13:00,17.9,-99.9,28.80,NE,45,0.0,-999.0,-999,-99.99,,,-99.99,,2013-01-15 22:13:00,
2013-01-15 22:19:00,17.8,-99.9,28.80,NE,45,0.0,-999.0,-999,-99.99,,,-99.99,,2013-01-15 22:19:00,
2013-01-15 22:25:00,17.5,-99.9,28.79,NE,45,0.0,-999.0,-999,-99.99,,,-99.99,,2013-01-15 22:25:00,
2013-01-15 22:31:00,17.3,-99.9,28.79,NE,45,0.0,-999.0,-999,-99.99,,,-99.99,,2013-01-15 22:31:00,
2013-01-15 22:37:00,17.3,-99.9,28.79,NE,45,0.0,-999.0,-999,-99.99,,,-99.99,,2013-01-15 22:37:00,
2013-01-15 22:43:00,17.4,-99.9,28.79,NE,45,0.0,-999.0,-999,-99.99,,,-99.99,,2013-01-15 22:43:00,
2013-01-15 22:49:00,17.0,-99.9,28.79,NE,45,0.0,-999.0,-999,-99.99,,,-99.99,,2013-01-15 22:49:00,
2013-01-15 22:55:00,16.9,-99.9,28.79,NE,45,0.0,-999.0,-999,-99.99,,,-99.99,,2013-01-15 22:55:00,
2013-01-15 23:01:00,16.9,-99.9,28.79,NE,45,0.0,-999.0,-999,-99.99,,,-99.99,,2013-01-15 23:01:00,
2013-01-15 23:07:00,16.7,-99.9,28.78,NE,45,0.0,-999.0,-999,-99.99,,,-99.99,,2013-01-15 23:07:00,
2013-01-15 23:13:00,16.5,-99.9,28.79,NE,45,0.0,-999.0,-999,-99.99,,,-99.99,,2013-01-15 23:13:00,
2013-01-15 23:19:00,16.4,-99.9,28.79,NE,45,0.0,-999.0,-999,-99.99,,,-99.99,,2013-01-15 23:19:00,
2013-01-15 23:25:00,16.6,-99.9,28.79,NE,45,0.0,-999.0,-999,-99.99,,,-99.99,,2013-01-15 23:25:00,
2013-01-15 23:31:00,16.8,-99.9,28.78,NE,45,0.0,-999.0,-999,-99.99,,,-99.99,,2013-01-15 23:31:00,
2013-01-15 23:37:00,16.8,-99.9,28.78,NE,45,0.0,-999.0,-999,-99.99,,,-99.99,,2013-01-15 23:37:00,
2013-01-15 23:43:00,17.0,-99.9,28.78,NE,45,0.0,-999.0,-999,-99.99,,,-99.99,,2013-01-15 23:43:00,
2013-01-15 23:49:00,17.1,-99.9,28.78,NE,45,0.0,-999.0,-999,-99.99,,,-99.99,,2013-01-15 23:49:00,
2013-01-15 23:55:00,17.0,-99.9,28.78,NE,45,0.0,-999.0,-999,-99.99,,,-99.99,,2013-01-15 23:55:00,